Volver al catálogo

TIANFU DONGPO 08

ActivoComunicacionesSSO
NORAD 54686·PAYLOAD·🇨🇳 China
Este nombre de satélite aún no ha sido confirmado por fuentes oficiales.

Lanzado Dec 9, 2022 desde Yellow Sea Launch Area

Loading…

Próximos Pases (próximas 24 horas)

TLE

ActualizadoSource: Space-Track

Época: Sep 14, 2026, 14:24 UTC

1 54686U 22167E   26257.60057806  .00008082  00000-0  23906-3 0  9992
2 54686  97.6941  69.5136 0007395 201.3363 158.7572 15.35172934209038

Sigue TIANFU DONGPO 08 en tiempo real con AllMySat

Download on the App Store